Location: *
(46.1833°N, 22.7667°E)
Time: 22:13:39
(UTC+00:00)

Cosmos 1707 - Pass Details

Date: 17 September 2019
Orbit: 517 x 530 km, 82.5° (Epoch: 15 October)

Event Time Altitude Azimuth Distance (km) Brightness Sun altitude
Rises 17:04:06 0° 5° (N) 2,680 6.4 -5.4°
Reaches altitude 10° 17:06:45 10° 23° (NNE) 1,786 5.3 -5.9°
Maximum altitude 17:09:36 19° 70° (ENE) 1,303 4.2 -6.4°
Drops below altitude 10° 17:12:27 10° 117° (ESE) 1,778 4.8 -6.9°
Enters shadow 17:13:19 - 125° (SE) 2,047 5.2 -7.0°
